Location: Gro� Glienicke
(52.4675°N, 13.1079°E)
Time: 18:11:23
(UTC+00:00)

Cosmos 2278 Rocket - Pass Details

Date: 06 July 2020
Orbit: 841 x 845 km, 71.0° (Epoch: 12 August)

Event Time Altitude Azimuth Distance (km) Brightness Sun altitude
Rises 20:45:05 0° 328° (NNW) 3,418 7.9 -8.4°
Reaches altitude 10° 20:47:33 10° 330° (NNW) 2,479 6.4 -8.6°
Maximum altitude 20:53:15 81° 58° (ENE) 862 2.3 -9.1°
Enters shadow 20:58:33 12° 146° (SE) 2,320 3.8 -9.5°
